Russell, KS

6:42 PM CDT on May 22, 2017 (GMT -0500)
Russell Municipal

Weather History for KRSL - April, 2013

Change the Weather History Date:

Wednesday, April 17, 2013

  Actual Average Record
Temperature  
Mean Temperature 38 °F -  
Max Temperature 42 °F 67 °F 90 °F (2002)
Min Temperature 33 °F 44 °F 22 °F (1956)
Degree Days  
Heating Degree Days 26    
Moisture  
Dew Point 36 °F    
Average Humidity 94    
Maximum Humidity 100    
Minimum Humidity 67    
Precipitation  
Precipitation 0.86 in - - ()
Sea Level Pressure  
Sea Level Pressure 29.89 in    
Wind  
Wind Speed 13 mph (NNE)    
Max Wind Speed 26 mph    
Max Gust Speed 36 mph    
Visibility 5 miles    
Events Fog , Rain , Snow , Thunderstorm    
Averages and records for this station are not official NWS values.
T = Trace of Precipitation, MM = Missing Value Source: NWS Daily Summary

Daily Weather History Graph

Daily Weather History Graph

Search for Another Location

Airport or City:

Trip Planner

Search our weather history database for the weather conditions in past years. The results will help you decide how hot, cold, wet, or windy it might be!

Date:

Astronomy

Apr. 17, 2013 Rise Set
Actual Time 6:55 AM CDT 8:14 PM CDT
Civil Twilight 6:27 AM CDT 8:42 PM CDT
Nautical Twilight 5:54 AM CDT 9:15 PM CDT
Astronomical Twilight 5:19 AM CDT 9:50 PM CDT
Moon 12:11 PM CDT (4/17) 1:52 AM CDT (4/17)
Length of Visible Light 14h 14m
Length of Day
13h 18m
Waxing Crescent, 42% of the Moon is Illuminated
Apr 17
Waxing Crescent
Apr 18
First Quarter
Apr 25
Full
May 2
Last Quarter
May 9
New

Hourly Weather History & Observations

Time (CDT) Temp. Windchill Dew Point Humidity Pressure Visibility Wind Dir Wind Speed Gust Speed Precip Events Conditions
12:53 AM 42.1 °F 35.2 °F 32.0 °F 67% 30.03 in 10.0 mi ENE 12.7 mph - N/A   Overcast
1:53 AM 41.0 °F 32.2 °F 33.1 °F 73% 29.98 in 10.0 mi ENE 18.4 mph - N/A   Overcast
2:15 AM 39.2 °F 35.0 °F 33.8 °F 81% 30.03 in 10.0 mi Variable 5.8 mph 23.0 mph 0.00 in Rain , Thunderstorm Light Thunderstorms and Rain
2:31 AM 37.4 °F 27.8 °F 35.6 °F 93% 29.93 in 2.0 mi ENE 17.3 mph - 0.16 in Rain , Thunderstorm Thunderstorms and Rain
2:39 AM 37.4 °F 28.9 °F 35.6 °F 93% 29.95 in 5.0 mi ENE 13.8 mph 19.6 mph 0.18 in Rain , Thunderstorm Light Thunderstorms and Rain
2:53 AM 37.0 °F 28.9 °F 36.0 °F 96% 29.95 in 5.0 mi NE 12.7 mph - 0.25 in Rain , Thunderstorm Thunderstorms and Rain
3:05 AM 37.4 °F 29.3 °F 35.6 °F 93% 29.90 in 3.0 mi NE 12.7 mph - 0.04 in Rain , Thunderstorm Thunderstorms and Rain
3:12 AM 37.4 °F 29.3 °F 35.6 °F 93% 29.90 in 4.0 mi ENE 12.7 mph - 0.05 in Rain , Thunderstorm Light Thunderstorms and Rain
3:21 AM 37.4 °F - 37.4 °F 100% 29.97 in 2.5 mi Calm Calm - 0.13 in Rain , Thunderstorm Heavy Thunderstorms and Rain
3:28 AM 37.4 °F 32.1 °F 37.4 °F 100% 29.94 in 1.2 mi NNE 6.9 mph - 0.28 in Rain , Thunderstorm Heavy Thunderstorms and Rain
3:36 AM 37.4 °F 32.8 °F 37.4 °F 100% 29.95 in 3.0 mi NNE 5.8 mph - 0.33 in Rain , Thunderstorm Heavy Thunderstorms and Rain
3:53 AM 37.0 °F 32.4 °F 37.0 °F 100% 29.97 in 4.0 mi North 5.8 mph - 0.41 in Rain , Thunderstorm Light Thunderstorms and Rain
4:16 AM 37.4 °F 30.8 °F 35.6 °F 93% 29.92 in 5.0 mi North 9.2 mph - 0.03 in Rain Light Rain
4:23 AM 37.4 °F 30.8 °F 35.6 °F 93% 29.92 in 4.0 mi NNE 9.2 mph - 0.04 in Rain , Thunderstorm Rain
4:38 AM 37.4 °F 32.1 °F 37.4 °F 100% 29.94 in 4.0 mi North 6.9 mph - 0.06 in Rain Light Rain
4:53 AM 37.9 °F 31.5 °F 37.0 °F 97% 29.96 in 4.0 mi North 9.2 mph - 0.08 in Rain Light Rain
5:53 AM 37.9 °F 30.0 °F 37.0 °F 97% 29.95 in 4.0 mi North 12.7 mph - 0.03 in Rain Rain
6:53 AM 37.9 °F 30.0 °F 37.0 °F 97% 29.94 in 4.0 mi NNE 12.7 mph - 0.01 in Snow Light Snow
8:00 AM 37.4 °F 29.8 °F 37.4 °F 100% 29.92 in 2.5 mi North 11.5 mph - 0.00 in Rain Light Rain
8:53 AM 39.2 °F 32.0 °F 37.4 °F 93% 29.92 in 2.0 mi NNE 11.5 mph - N/A Rain Light Rain
9:01 AM 39.2 °F 32.5 °F 37.4 °F 93% 29.92 in 3.0 mi NNE 10.4 mph - 0.00 in Rain Light Rain
9:28 AM 39.2 °F 32.5 °F 37.4 °F 93% 29.90 in 4.0 mi NNE 10.4 mph - 0.00 in   Overcast
9:53 AM 39.0 °F 31.8 °F 37.9 °F 96% 29.93 in 3.0 mi NNE 11.5 mph - 0.00 in   Overcast
10:24 AM 39.2 °F 32.5 °F 37.4 °F 93% 29.89 in 2.5 mi NNE 10.4 mph - 0.00 in Rain Light Rain
10:48 AM 39.2 °F 32.5 °F 37.4 °F 93% 29.89 in 3.0 mi NNE 10.4 mph - 0.00 in Rain Light Rain
10:53 AM 39.9 °F 32.1 °F 37.9 °F 93% 29.91 in 3.0 mi NNE 13.8 mph - 0.00 in   Overcast
11:53 AM 41.0 °F 33.9 °F 39.0 °F 93% 29.91 in 10.0 mi North 12.7 mph - N/A   Overcast
12:09 PM 39.2 °F 32.0 °F 39.2 °F 100% 29.88 in 7.0 mi North 11.5 mph - N/A   Overcast
12:53 PM 39.9 °F 32.5 °F 39.0 °F 97% 29.88 in 6.0 mi North 12.7 mph - 0.01 in   Overcast
1:29 PM 39.2 °F 29.8 °F 37.4 °F 93% 29.83 in 1.8 mi North 18.4 mph - N/A   Overcast
1:41 PM 39.2 °F 30.8 °F 37.4 °F 93% 29.81 in 1.2 mi North 15.0 mph - 0.00 in   Overcast
1:53 PM 37.9 °F 27.9 °F 37.0 °F 97% 29.85 in 1.0 mi North 19.6 mph - 0.00 in   Overcast
2:06 PM 37.4 °F 27.8 °F 37.4 °F 100% 29.80 in 0.5 mi North 17.3 mph 24.2 mph N/A Fog Fog
2:36 PM 37.4 °F 28.9 °F 37.4 °F 100% 29.83 in 0.5 mi North 13.8 mph 24.2 mph N/A Fog , Thunderstorm Unknown
2:53 PM 37.0 °F 26.2 °F 37.0 °F 100% 29.82 in 0.5 mi North 21.9 mph 26.5 mph 0.03 in Fog , Rain , Thunderstorm Light Thunderstorms and Rain
3:10 PM 37.4 °F 27.5 °F 35.6 °F 93% 29.80 in 1.2 mi North 18.4 mph 25.3 mph 0.00 in Thunderstorm Overcast
3:49 PM 37.4 °F 27.8 °F 37.4 °F 100% 29.81 in 7.0 mi North 17.3 mph - N/A   Overcast
3:53 PM 37.9 °F 29.6 °F 37.0 °F 97% 29.85 in 6.0 mi North 13.8 mph - 0.00 in   Overcast
4:53 PM 37.9 °F 29.2 °F 37.0 °F 97% 29.84 in 7.0 mi North 15.0 mph - N/A   Overcast
5:53 PM 37.9 °F 28.5 °F 37.0 °F 97% 29.85 in 6.0 mi North 17.3 mph 25.3 mph N/A   Overcast
6:17 PM 37.4 °F 28.2 °F 35.6 °F 93% 29.81 in 9.0 mi North 16.1 mph 26.5 mph N/A   Overcast
6:53 PM 37.9 °F 27.9 °F 36.0 °F 93% 29.85 in 10.0 mi North 19.6 mph 25.3 mph N/A   Overcast
7:38 PM 37.4 °F 27.5 °F 35.6 °F 93% 29.80 in 10.0 mi North 18.4 mph - N/A   Overcast
7:53 PM 37.9 °F 27.6 °F 35.1 °F 89% 29.83 in 10.0 mi North 20.7 mph 31.1 mph N/A   Overcast
8:08 PM 37.4 °F 27.5 °F 35.6 °F 93% 29.80 in 10.0 mi North 18.4 mph 26.5 mph N/A   Overcast
8:29 PM 37.4 °F 26.9 °F 35.6 °F 93% 29.79 in 10.0 mi North 20.7 mph 31.1 mph N/A   Overcast
8:53 PM 37.9 °F 26.6 °F 35.1 °F 89% 29.82 in 10.0 mi North 25.3 mph 33.4 mph N/A   Overcast
9:53 PM 37.0 °F 25.9 °F 35.1 °F 93% 29.83 in 5.0 mi North 23.0 mph 32.2 mph 0.01 in Snow Light Snow
10:42 PM 35.6 °F 23.7 °F 33.8 °F 93% 29.81 in 2.5 mi North 24.2 mph 35.7 mph 0.01 in Snow Light Snow
10:53 PM 35.1 °F 23.3 °F 33.1 °F 92% 29.85 in 2.5 mi North 23.0 mph 29.9 mph 0.02 in Snow Light Snow
11:01 PM 35.6 °F 23.2 °F 33.8 °F 93% 29.83 in 4.0 mi North 26.5 mph 32.2 mph 0.00 in Snow Light Snow
11:20 PM 35.6 °F 25.2 °F 33.8 °F 93% 29.85 in 8.0 mi North 18.4 mph 29.9 mph 0.00 in Snow , Thunderstorm Light Thunderstorms and Snow
11:53 PM 33.1 °F 20.6 °F 32.0 °F 96% 29.88 in 4.0 mi North 23.0 mph - 0.01 in Snow Light Snow